Regional Weather Roundup
Issued by NWS

Home | Current Version | Previous Version | Text Only | Print | Product List | Glossary Off
Versions: 1 2 3 4 5 6 7 8 9 10 11 12 13 14 15 16 17 18 19 20 21 22 23 24 25 26 27 28 29 30 31 32 33 34 35 36 37 38 39 40 41 42 43 44 45 46 47 48 49 50

000
ASUS43 KOAX 020710
RWRNE

WEATHER ROUNDUP FOR NEBRASKA
NATIONAL WEATHER SERVICE OMAHA NE
200 AM CDT THU JUL 02 2015

NOTES: SATELLITE DATA IS BEING USED TO AUGMENT CLOUD COVER ABOVE
       12000 FEET.
       "FAIR" INDICATES FEW OR NO CLOUDS BELOW 12,000 FEET WITH NO
       SIGNIFICANT WEATHER AND/OR OBSTRUCTIONS TO VISIBILITY.

  * THESE STATIONS DO NOT REPORT WEATHER SUCH AS RAIN...SNOW OR FOG.

NEZ001>004-019>022-054>056-020800-
NEBRASKA PANHANDLE

CITY           SKY/WX    TMP DP  RH WIND       PRES   REMARKS
SCOTTSBLUFF    PTCLDY    66  60  81 SE8       30.04R
ALLIANCE       CLOUDY    70  61  73 NE5       30.06R THUNDER
CHADRON        LGT RAIN  62  60  93 SW12      30.14S FOG
SIDNEY         PTCLDY    62  59  90 S8        30.09R
$$

NEZ057>060-069>072-079>082-020800-
SOUTHWEST NEBRASKA

CITY           SKY/WX    TMP DP  RH WIND       PRES   REMARKS
NORTH PLATTE   CLOUDY    71  63  75 VRB3      29.97R
IMPERIAL       CLOUDY    71  60  68 N13       29.98F
MCCOOK         CLOUDY    75  64  68 SW7       29.93F
$$

NEZ005>010-023>029-035>040-094-020800-
NORTH CENTRAL NEBRASKA

CITY           SKY/WX    TMP DP  RH WIND       PRES   REMARKS
VALENTINE      MOCLDY    67  65  93 N3        29.99R
BROKEN BOW     CLOUDY    68  64  87 E5        29.94F
$$

NEZ041-046>049-061>064-073>077-083>087-020800-
SOUTH CENTRAL NEBRASKA

CITY           SKY/WX    TMP DP  RH WIND       PRES   REMARKS
GRAND ISLAND   PTCLDY    69  66  90 E7        29.93S
HASTINGS       PTCLDY    71  69  93 E8        29.91F
KEARNEY *      MOCLDY    70  66  88 E7        29.92F
$$

NEZ011>018-030>034-042>045-020800-
NORTHEAST NEBRASKA

CITY           SKY/WX    TMP DP  RH WIND       PRES   REMARKS
NORFOLK        CLEAR     67  65  93 E7        29.92F
COLUMBUS *     MOCLDY   N/A N/A N/A E9        29.92F
TEKAMAH        CLEAR     66  59  78 E7        29.94S
$$

NEZ050>053-065>068-078-088>093-020800-
SOUTHEAST NEBRASKA

CITY           SKY/WX    TMP DP  RH WIND       PRES   REMARKS
LINCOLN        CLOUDY    69  66  90 NE10      29.93R
OMAHA EPPLEY   MOCLDY    69  60  73 E7        29.93S
FALLS CITY     CLOUDY    71  67  87 E8        29.89R
$$

NEZ044-045-051>053-067-020800-
OMAHA AREA

CITY           SKY/WX    TMP DP  RH WIND       PRES   REMARKS
OMAHA EPPLEY   MOCLDY    69  60  73 E7        29.93S
OFFUTT AFB     MOCLDY    68  61  79 E8        29.92S
$$



USA.gov is the U.S. government's official web portal to all federal, state and local government web resources and services.